{"data":{"norad_id":45448,"epoch":"2026-05-25T03:10:33.748320Z","epoch_age_seconds":77315,"freshness":"FRESH","line1":"1 45448U 20020AA  26145.13233505  .00000170  00000+0  44272-3 0  9998","line2":"2 45448  87.8917  25.6536 0001945  90.6683 269.4667 13.11413886299674","mean_motion":13.11413886,"eccentricity":0.0001945,"inclination_deg":87.8917,"raan_deg":25.6536,"arg_perigee_deg":90.6683,"mean_anomaly_deg":269.4667,"bstar":0.00044272,"rev_number":29967,"period_min":109.80515117102,"perigee_km":1216.2171211308,"apogee_km":1219.1718995884,"semimajor_km":7595.8315103596,"source":"CELESTRAK","updated_at":"2026-05-25T13:38:22.346158Z"}}